To NAV CANADA Home Page Login to a new session Search on AWWS site Disclaimer Vers la page française équivalente Tips FAQ What's new on the site To the Forecasts and Observations / NOTAM section To "File a Flight Plan" website Publications and other links Update of the User's profile FIC Telephone Numbers My Weather Data Folder Route Weather Data Regional Weather Data Local Weather Data To the Forecasts and Observations / NOTAM section
Request Generated 03/21/2019 at 01:35:53 UTC . Weather information available at that time is displayed.

METAR/TAF

SALLUIT/QC    

LWIS CYZG 210100Z AUTO 23023G30KT M19/M23 A2958=
LWIS CYZG 210000Z AUTO 23026G33KT M19/M23 A2962=
LWIS CYZG 202300Z AUTO 24027KT M19/M24 A2963=

*** REMARK        : Forecast period has ended; this was the last TAF issued
*** REMARQUE : La période de prévision est échue; ceci était le dernier TAF qui a été émis
TAF AMD CYZG 201613Z 2016/2021 23020KT 21/2SM -SN BLSN SCT040 BKN080
TEMPO 2016/2021 P6SM -SN FEW050 BKN100
RMK NXT FCST WILL BE ISSUED AT 211345Z=
Your time UTC time
Weather data provided by Environment Canada and NAV CANADA